カタログに戻る

KUIPER-00078

運用中通信LEO
NORAD 64825·PAYLOAD·🇺🇸 United States

打ち上げ Jul 16, 2025 から Cape Canaveral Space Force Station

Loading…

次のパス (今後24時間)

TLE

最新Source: CelesTrak SupGP

元期: Sep 14, 2026, 23:05 UTC

1 64825C 25151K   26257.96193287 -.00000742  00000+0 -97128-4 0  2578
2 64825  51.8991 178.6335 0001044  84.5688 337.5548 14.79930297    18

AllMySatでKUIPER-00078をリアルタイム追跡

Download on the App Store